星链-31974 (STARLINK-31974 )

导读

STARLINK-31974是美国太空探索技术公司 SpaceX 星链互联网卫星星座的组成部分,于2024年5月28日8时发射入轨,服务全球低延迟宽带互联网覆盖,尤其为偏远地区、海洋与航空航线提供网络接入支持,属于星链组网阶段新补网卫星,延续了星座批量部署节奏,进一步完善星座覆盖能力。

基本信息
目录编号:
59885
目录名称:
STARLINK-31974
国际标识:
2024-100A
轨道中心:
EARTH
卫星名称:
星链-31974
卫星全名:
星链-31974 (STARLINK-31974 )
卫星状态:
在轨 (已飞行829 天)
发射日期:
2024-05-28 UTC
国别 :
美国 (US)
星等 :
--
轨道信息
数据来源 国际轨道数据 AOE轨道数据
星历时间 2026-09-04T05:53:00+0800
11小时前
查看轨道信息
2026-09-03T22:00:00+0800
19小时前
查看轨道信息
半长轴 6861.203km 6861.194km
偏心率 0.0000921 0.0001063
轨道倾角 43.003° 43.001°
近地点辐角 264.591° 252.980°
升交点赤经 198.896° 200.754°
平近点角 95.483° 98.629°
近地点 482.434km 482.327km
远地点 483.698km 483.787km
周期 94.267分钟 94.267分钟
每日圈数 15.275746 15.275774
详细信息
固有亮度:
5
最大亮度:
1.5
卫星平台:
Starlink v2.0 mini
覆盖范围:
全球
运营商:
太空探索技术公司
运营商所在国:
美国
制造商(研发单位):
太空探索技术公司
制造商所在国:
美国
使用方式:
暂无
卫星简介
星链(Starlink)计划是由太空探索技术公司(SpaceX)提出的一个巨型低轨卫星互联网星座项目,计划在2019年至2024年间在太空搭建由约1.2万颗卫星组成的“星链”网络,其中1584颗将部署在地球上空550千米处的近地轨道,并从2020年开始工作。该卫星仍在工作。
2D轨道图
3D轨道图
轨道高度分析图
轨道倾角分析图
轨道综合分析图
查看轨道综合分析图
交会数据列表
事件ID 空间交会对象 最接近时刻(TCA) 交会距离 交会风险概率(CRP) 交会风险指数(CRI) 操作
CDM_260829-164505-988506-762922
2026-08-29T
16:45:20+0000
0.466 km
远距离
6.250454E-5 中风险 0.71
CDM_260905-001405-988506-710321
2026-09-05T
00:14:22+0000
1.298 km
极远距离
4.382768E-6 低风险 0.48
CDM_260829-155805-988506-762922
2026-08-29T
15:58:16+0000
1.229 km
极远距离
2.763052E-6 低风险 0.44
CDM_260829-194505-363905-988521
2026-08-29T
19:45:07+0000
1.768 km
极远距离
2.725088E-6 低风险 0.44
CDM_260905-102705-717505-988521
OBJECT K (57175)
2026-09-05T
10:27:12+0000
2.695 km
极远距离
1.437464E-6 低风险 0.38
CDM_260905-054705-619105-988521
HAWK-7A (56191)
2026-09-05T
05:47:18+0000
2.437 km
极远距离
1.390029E-6 低风险 0.38
CDM_260829-142405-988506-762922
2026-08-29T
14:24:07+0000
1.721 km
极远距离
1.026369E-6 低风险 0.35
CDM_260829-151105-988506-762922
2026-08-29T
15:11:11+0000
2.237 km
极远距离
5.793304E-7 极低风险 0.3